Time,TemperatureF,DewpointF,PressureIn,WindDirection,WindDirectionDegrees,WindSpeedMPH,WindSpeedGustMPH,Humidity,HourlyPrecipIn,Conditions,Clouds,dailyrainin,SoftwareType,DateUTC
2013-09-19 00:02:00,81.0,62.8,29.77,ESE,123,1.0,9.0,54,0.00,,---,0.00,VWS V14.01,2013-09-19 05:02:00,
2013-09-19 00:07:00,81.0,62.8,29.77,ESE,117,7.0,12.0,54,0.00,,---,0.00,VWS V14.01,2013-09-19 05:07:00,
2013-09-19 00:12:00,80.9,62.7,29.77,South,181,4.0,12.0,54,0.00,,---,0.00,VWS V14.01,2013-09-19 05:12:00,
2013-09-19 00:17:00,80.9,62.7,29.77,SSW,208,11.0,11.0,54,0.00,,---,0.00,VWS V14.01,2013-09-19 05:17:00,
2013-09-19 00:22:00,80.8,62.6,29.77,SW,218,4.0,14.0,54,0.00,,---,0.00,VWS V14.01,2013-09-19 05:22:00,
2013-09-19 00:27:00,80.7,62.5,29.77,West,266,4.0,14.0,54,0.00,,---,0.00,VWS V14.01,2013-09-19 05:27:00,
2013-09-19 00:32:00,80.6,62.4,29.77,SSW,211,2.0,11.0,54,0.00,,---,0.00,VWS V14.01,2013-09-19 05:32:00,
2013-09-19 00:37:00,80.5,62.9,29.77,SE,139,9.0,11.0,55,0.00,,---,0.00,VWS V14.01,2013-09-19 05:37:00,
2013-09-19 00:42:00,80.5,62.9,29.77,SW,226,4.0,13.0,55,0.00,,---,0.00,VWS V14.01,2013-09-19 05:42:00,
2013-09-19 00:47:00,80.3,62.7,29.77,SE,143,2.0,10.0,55,0.00,,---,0.00,VWS V14.01,2013-09-19 05:47:00,
2013-09-19 00:52:00,80.2,62.6,29.77,SW,218,7.0,10.0,55,0.00,,---,0.00,VWS V14.01,2013-09-19 05:52:00,
2013-09-19 00:57:00,80.1,63.0,29.77,SE,146,10.0,11.0,56,0.00,,---,0.00,VWS V14.01,2013-09-19 05:57:00,
2013-09-19 01:02:00,79.9,62.8,29.77,SSW,211,4.0,8.0,56,0.00,,---,0.00,VWS V14.01,2013-09-19 06:02:00,
2013-09-19 01:07:00,79.6,63.0,29.76,SE,140,4.0,8.0,57,0.00,,---,0.00,VWS V14.01,2013-09-19 06:07:00,
2013-09-19 01:12:00,79.3,62.8,29.77,SSW,198,4.0,9.0,57,0.00,,---,0.00,VWS V14.01,2013-09-19 06:12:00,
2013-09-19 01:17:00,79.2,63.2,29.77,South,174,7.0,9.0,58,0.00,,---,0.00,VWS V14.01,2013-09-19 06:17:00,
2013-09-19 01:22:00,79.0,63.0,29.77,South,181,3.0,10.0,58,0.00,,---,0.00,VWS V14.01,2013-09-19 06:22:00,
2013-09-19 01:27:00,78.9,62.9,29.77,SSE,155,5.0,11.0,58,0.00,,---,0.00,VWS V14.01,2013-09-19 06:27:00,
2013-09-19 01:32:00,78.7,62.7,29.77,SSE,163,5.0,9.0,58,0.00,,---,0.00,VWS V14.01,2013-09-19 06:32:00,
2013-09-19 01:37:00,78.6,63.1,29.77,ESE,117,3.0,9.0,59,0.00,,---,0.00,VWS V14.01,2013-09-19 06:37:00,
2013-09-19 01:42:00,78.4,62.9,29.77,South,169,4.0,10.0,59,0.00,,---,0.00,VWS V14.01,2013-09-19 06:42:00,
2013-09-19 01:47:00,78.3,63.3,29.77,South,186,4.0,10.0,60,0.00,,---,0.00,VWS V14.01,2013-09-19 06:47:00,
2013-09-19 01:52:00,78.1,63.1,29.77,SW,215,3.0,10.0,60,0.00,,---,0.00,VWS V14.01,2013-09-19 06:52:00,
2013-09-19 01:57:00,78.1,63.1,29.77,South,188,5.0,12.0,60,0.00,,---,0.00,VWS V14.01,2013-09-19 06:57:00,
2013-09-19 02:02:00,78.0,63.0,29.77,South,180,9.0,9.0,60,0.00,,---,0.00,VWS V14.01,2013-09-19 07:02:00,
2013-09-19 02:07:00,77.9,63.4,29.77,SE,138,5.0,10.0,61,0.00,,---,0.00,VWS V14.01,2013-09-19 07:07:00,
2013-09-19 02:12:00,77.8,63.3,29.77,South,172,8.0,10.0,61,0.00,,---,0.00,VWS V14.01,2013-09-19 07:12:00,
2013-09-19 02:17:00,77.7,63.2,29.77,South,183,4.0,9.0,61,0.00,,---,0.00,VWS V14.01,2013-09-19 07:17:00,
2013-09-19 02:22:00,77.7,63.2,29.77,WSW,243,4.0,11.0,61,0.00,,---,0.00,VWS V14.01,2013-09-19 07:22:00,
2013-09-19 02:27:00,77.6,63.6,29.77,SW,224,8.0,11.0,62,0.00,,---,0.00,VWS V14.01,2013-09-19 07:27:00,
2013-09-19 02:32:00,77.5,63.5,29.77,SSW,207,5.0,11.0,62,0.00,,---,0.00,VWS V14.01,2013-09-19 07:32:00,
2013-09-19 02:37:00,77.4,63.4,29.77,WSW,239,5.0,11.0,62,0.00,,---,0.00,VWS V14.01,2013-09-19 07:37:00,
2013-09-19 02:42:00,77.3,63.7,29.77,SSW,205,7.0,11.0,63,0.00,,---,0.00,VWS V14.01,2013-09-19 07:42:00,
2013-09-19 02:47:00,77.2,63.6,29.77,South,190,2.0,8.0,63,0.00,,---,0.00,VWS V14.01,2013-09-19 07:47:00,
2013-09-19 02:52:00,77.2,63.6,29.77,ESE,121,5.0,10.0,63,0.00,,---,0.00,VWS V14.01,2013-09-19 07:52:00,
2013-09-19 02:57:00,77.2,63.6,29.77,SSE,150,7.0,12.0,63,0.00,,---,0.00,VWS V14.01,2013-09-19 07:57:00,
2013-09-19 03:02:00,77.1,63.5,29.77,WSW,242,5.0,9.0,63,0.00,,---,0.00,VWS V14.01,2013-09-19 08:02:00,
2013-09-19 03:07:00,77.0,63.9,29.77,WSW,240,5.0,10.0,64,0.00,,---,0.00,VWS V14.01,2013-09-19 08:07:00,
2013-09-19 03:12:00,77.0,63.9,29.76,SE,142,4.0,12.0,64,0.00,,---,0.00,VWS V14.01,2013-09-19 08:12:00,
2013-09-19 03:17:00,77.0,63.9,29.76,SE,128,4.0,11.0,64,0.00,,---,0.00,VWS V14.01,2013-09-19 08:17:00,
2013-09-19 03:22:00,76.9,63.8,29.76,West,262,6.0,11.0,64,0.00,,---,0.00,VWS V14.01,2013-09-19 08:22:00,
2013-09-19 03:27:00,76.9,63.8,29.76,SSW,205,6.0,11.0,64,0.00,,---,0.00,VWS V14.01,2013-09-19 08:27:00,
2013-09-19 03:32:00,76.8,63.7,29.76,ESE,118,4.0,7.0,64,0.00,,---,0.00,VWS V14.01,2013-09-19 08:32:00,
2013-09-19 03:37:00,76.8,64.2,29.76,SSE,166,5.0,10.0,65,0.00,,---,0.00,VWS V14.01,2013-09-19 08:37:00,
2013-09-19 03:42:00,76.9,64.2,29.76,SW,227,4.0,12.0,65,0.00,,---,0.00,VWS V14.01,2013-09-19 08:42:00,
2013-09-19 03:47:00,76.9,64.2,29.76,SSE,153,8.0,10.0,65,0.00,,---,0.00,VWS V14.01,2013-09-19 08:47:00,
2013-09-19 03:52:00,76.9,64.2,29.76,SE,136,2.0,13.0,65,0.00,,---,0.00,VWS V14.01,2013-09-19 08:52:00,
2013-09-19 03:57:00,76.8,64.2,29.76,South,180,4.0,13.0,65,0.00,,---,0.00,VWS V14.01,2013-09-19 08:57:00,
2013-09-19 04:02:00,76.8,64.2,29.76,SSE,165,4.0,9.0,65,0.00,,---,0.00,VWS V14.01,2013-09-19 09:02:00,
2013-09-19 04:07:00,76.7,64.5,29.76,SE,135,6.0,13.0,66,0.00,,---,0.00,VWS V14.01,2013-09-19 09:07:00,
2013-09-19 04:12:00,76.6,64.4,29.76,SSW,205,3.0,13.0,66,0.00,,---,0.00,VWS V14.01,2013-09-19 09:12:00,
2013-09-19 04:17:00,76.6,64.4,29.76,SW,236,6.0,11.0,66,0.00,,---,0.00,VWS V14.01,2013-09-19 09:17:00,
2013-09-19 04:22:00,76.5,64.7,29.76,SE,143,0.0,12.0,67,0.00,,---,0.00,VWS V14.01,2013-09-19 09:22:00,
2013-09-19 04:27:00,76.4,64.6,29.76,SSE,158,7.0,13.0,67,0.00,,---,0.00,VWS V14.01,2013-09-19 09:27:00,
2013-09-19 04:32:00,76.3,64.6,29.75,SSW,205,6.0,9.0,67,0.00,,---,0.00,VWS V14.01,2013-09-19 09:32:00,
2013-09-19 04:37:00,76.3,64.6,29.75,SW,215,3.0,11.0,67,0.00,,---,0.00,VWS V14.01,2013-09-19 09:37:00,
2013-09-19 04:42:00,76.2,64.9,29.75,South,183,7.0,11.0,68,0.00,,---,0.00,VWS V14.01,2013-09-19 09:42:00,
2013-09-19 04:47:00,76.1,64.8,29.75,South,174,5.0,9.0,68,0.00,,---,0.00,VWS V14.01,2013-09-19 09:47:00,
2013-09-19 04:52:00,76.1,64.8,29.75,SSE,168,5.0,11.0,68,0.00,,---,0.00,VWS V14.01,2013-09-19 09:52:00,
2013-09-19 04:57:00,76.1,64.8,29.75,South,174,6.0,11.0,68,0.00,,---,0.00,VWS V14.01,2013-09-19 09:57:00,
2013-09-19 05:02:00,76.0,64.7,29.75,SSW,203,6.0,8.0,68,0.00,,---,0.00,VWS V14.01,2013-09-19 10:02:00,
2013-09-19 05:07:00,75.4,64.1,29.76,SSW,201,4.0,12.0,68,0.00,,---,0.00,VWS V14.01,2013-09-19 10:07:00,
2013-09-19 05:12:00,75.4,64.1,29.75,SSW,201,4.0,12.0,68,0.00,,---,0.00,VWS V14.01,2013-09-19 10:12:00,
2013-09-19 05:17:00,75.4,64.1,29.75,SSW,201,4.0,4.0,68,0.00,,---,0.00,VWS V14.01,2013-09-19 10:17:00,
2013-09-19 05:22:00,75.4,64.1,29.75,SSW,201,4.0,4.0,68,0.00,,---,0.00,VWS V14.01,2013-09-19 10:22:00,
2013-09-19 05:27:00,75.4,64.1,29.75,SSW,201,4.0,4.0,68,0.00,,---,0.00,VWS V14.01,2013-09-19 10:27:00,
2013-09-19 05:32:00,75.4,64.1,29.75,SSW,201,4.0,4.0,68,0.00,,---,0.00,VWS V14.01,2013-09-19 10:32:00,
2013-09-19 05:37:00,75.4,64.1,29.75,SSW,201,4.0,4.0,68,0.00,,---,0.00,VWS V14.01,2013-09-19 10:37:00,
2013-09-19 05:42:00,75.4,64.1,29.75,SSW,201,4.0,4.0,68,0.00,,---,0.00,VWS V14.01,2013-09-19 10:42:00,
2013-09-19 05:47:00,75.4,64.1,29.75,SSW,201,4.0,4.0,68,0.00,,---,0.00,VWS V14.01,2013-09-19 10:47:00,
2013-09-19 05:52:00,75.4,64.1,29.75,SSW,201,4.0,4.0,68,0.00,,---,0.00,VWS V14.01,2013-09-19 10:52:00,
2013-09-19 05:57:00,75.4,64.1,29.75,SSW,201,4.0,4.0,68,0.00,,---,0.00,VWS V14.01,2013-09-19 10:57:00,
2013-09-19 06:01:00,75.4,64.1,29.75,SSW,201,4.0,4.0,68,0.00,,---,0.00,VWS V14.01,2013-09-19 11:01:00,
2013-09-19 06:06:00,75.4,64.1,29.75,SSW,201,4.0,4.0,68,0.00,,---,0.00,VWS V14.01,2013-09-19 11:06:00,
2013-09-19 06:11:00,75.4,64.1,29.75,SSW,201,4.0,4.0,68,0.00,,---,0.00,VWS V14.01,2013-09-19 11:11:00,
2013-09-19 06:16:00,75.4,64.1,29.75,SSW,201,4.0,4.0,68,0.00,,---,0.00,VWS V14.01,2013-09-19 11:16:00,
2013-09-19 06:21:00,75.4,64.1,29.75,SSW,201,4.0,4.0,68,0.00,,---,0.00,VWS V14.01,2013-09-19 11:21:00,
2013-09-19 06:26:00,75.4,64.1,29.75,SSW,201,4.0,4.0,68,0.00,,---,0.00,VWS V14.01,2013-09-19 11:26:00,
2013-09-19 06:31:00,75.4,64.1,29.75,SSW,201,4.0,4.0,68,0.00,,---,0.00,VWS V14.01,2013-09-19 11:31:00,
2013-09-19 06:36:00,75.4,64.1,29.75,SSW,201,4.0,4.0,68,0.00,,---,0.00,VWS V14.01,2013-09-19 11:36:00,
2013-09-19 06:41:00,75.4,64.1,29.76,SSW,201,4.0,4.0,68,0.00,,---,0.00,VWS V14.01,2013-09-19 11:41:00,
2013-09-19 06:46:00,75.4,64.1,29.75,SSW,201,4.0,4.0,68,0.00,,---,0.00,VWS V14.01,2013-09-19 11:46:00,
2013-09-19 06:51:00,75.4,64.1,29.76,SSW,201,4.0,4.0,68,0.00,,---,0.00,VWS V14.01,2013-09-19 11:51:00,
2013-09-19 06:56:00,75.4,64.1,29.76,SSW,201,4.0,4.0,68,0.00,,---,0.00,VWS V14.01,2013-09-19 11:56:00,
2013-09-19 07:01:00,75.4,64.1,29.75,SSW,201,4.0,4.0,68,0.00,,---,0.00,VWS V14.01,2013-09-19 12:01:00,
2013-09-19 07:06:00,75.4,64.1,29.75,SSW,201,4.0,4.0,68,0.00,,---,0.00,VWS V14.01,2013-09-19 12:06:00,
2013-09-19 07:11:00,75.4,64.1,29.75,SSW,201,4.0,4.0,68,0.00,,---,0.00,VWS V14.01,2013-09-19 12:11:00,
2013-09-19 07:16:00,75.4,64.1,29.75,SSW,201,4.0,4.0,68,0.00,,---,0.00,VWS V14.01,2013-09-19 12:16:00,
2013-09-19 07:21:00,75.4,64.1,29.75,SSW,201,4.0,4.0,68,0.00,,---,0.00,VWS V14.01,2013-09-19 12:21:00,
2013-09-19 07:26:00,75.4,64.1,29.75,SSW,201,4.0,4.0,68,0.00,,---,0.00,VWS V14.01,2013-09-19 12:26:00,
2013-09-19 07:31:00,75.4,64.1,29.76,SSW,201,4.0,4.0,68,0.00,,---,0.00,VWS V14.01,2013-09-19 12:31:00,
2013-09-19 07:36:00,75.4,64.1,29.76,SSW,201,4.0,4.0,68,0.00,,---,0.00,VWS V14.01,2013-09-19 12:36:00,
2013-09-19 07:41:00,75.4,64.1,29.76,SSW,201,4.0,4.0,68,0.00,,---,0.00,VWS V14.01,2013-09-19 12:41:00,
2013-09-19 07:46:00,75.4,64.1,29.76,SSW,201,4.0,4.0,68,0.00,,---,0.00,VWS V14.01,2013-09-19 12:46:00,
2013-09-19 07:51:00,75.4,64.1,29.76,SSW,201,4.0,4.0,68,0.00,,---,0.00,VWS V14.01,2013-09-19 12:51:00,
2013-09-19 07:56:00,75.4,64.1,29.76,SSW,201,4.0,4.0,68,0.00,,---,0.00,VWS V14.01,2013-09-19 12:56:00,
2013-09-19 08:01:00,76.0,64.7,29.76,South,173,5.0,7.0,68,0.00,,---,0.00,VWS V14.01,2013-09-19 13:01:00,
2013-09-19 08:06:00,76.2,65.3,29.76,SSW,200,8.0,12.0,69,0.00,,---,0.00,VWS V14.01,2013-09-19 13:06:00,
2013-09-19 08:11:00,76.5,65.6,29.76,SE,129,2.0,13.0,69,0.00,,---,0.00,VWS V14.01,2013-09-19 13:11:00,
2013-09-19 08:16:00,76.7,65.3,29.76,SW,226,5.0,8.0,68,0.00,,---,0.00,VWS V14.01,2013-09-19 13:16:00,
2013-09-19 08:21:00,77.0,65.6,29.76,WSW,248,4.0,12.0,68,0.00,,---,0.00,VWS V14.01,2013-09-19 13:21:00,
2013-09-19 08:26:00,77.2,65.8,29.76,South,180,0.0,12.0,68,0.00,,---,0.00,VWS V14.01,2013-09-19 13:26:00,
2013-09-19 08:31:00,77.6,65.8,29.76,South,169,5.0,9.0,67,0.00,,---,0.00,VWS V14.01,2013-09-19 13:31:00,
2013-09-19 08:36:00,77.8,66.0,29.76,SSW,210,6.0,13.0,67,0.00,,---,0.00,VWS V14.01,2013-09-19 13:36:00,
2013-09-19 08:41:00,78.1,65.8,29.76,SSW,212,10.0,13.0,66,0.00,,---,0.00,VWS V14.01,2013-09-19 13:41:00,
2013-09-19 08:46:00,78.4,66.1,29.76,SSW,206,4.0,10.0,66,0.00,,---,0.00,VWS V14.01,2013-09-19 13:46:00,
2013-09-19 08:51:00,78.5,66.2,29.77,SW,215,4.0,11.0,66,0.00,,---,0.00,VWS V14.01,2013-09-19 13:51:00,
2013-09-19 08:56:00,78.7,66.0,29.77,WSW,238,7.0,13.0,65,0.00,,---,0.00,VWS V14.01,2013-09-19 13:56:00,
2013-09-19 09:01:00,79.0,66.2,29.77,South,179,5.0,6.0,65,0.00,,---,0.00,VWS V14.01,2013-09-19 14:01:00,
2013-09-19 09:06:00,79.4,66.2,29.77,SW,232,5.0,10.0,64,0.00,,---,0.00,VWS V14.01,2013-09-19 14:06:00,
2013-09-19 09:11:00,79.8,66.1,29.77,SSE,148,6.0,12.0,63,0.00,,---,0.00,VWS V14.01,2013-09-19 14:11:00,
2013-09-19 09:16:00,80.1,66.4,29.77,South,177,5.0,8.0,63,0.00,,---,0.00,VWS V14.01,2013-09-19 14:16:00,
2013-09-19 09:21:00,80.6,66.4,29.78,SW,219,3.0,12.0,62,0.00,,---,0.00,VWS V14.01,2013-09-19 14:21:00,
2013-09-19 09:26:00,81.0,66.3,29.78,SSW,213,5.0,13.0,61,0.00,,---,0.00,VWS V14.01,2013-09-19 14:26:00,
2013-09-19 09:31:00,81.6,66.9,29.78,SSE,155,2.0,4.0,61,0.00,,---,0.00,VWS V14.01,2013-09-19 14:31:00,
2013-09-19 09:36:00,82.1,66.8,29.78,SSW,194,3.0,11.0,60,0.00,,---,0.00,VWS V14.01,2013-09-19 14:36:00,
2013-09-19 09:41:00,82.4,66.7,29.78,WSW,243,9.0,11.0,59,0.00,,---,0.00,VWS V14.01,2013-09-19 14:41:00,
2013-09-19 09:46:00,82.5,66.7,29.78,SW,229,5.0,10.0,59,0.00,,---,0.00,VWS V14.01,2013-09-19 14:46:00,
2013-09-19 09:51:00,82.6,66.8,29.78,SSE,163,2.0,10.0,59,0.00,,---,0.00,VWS V14.01,2013-09-19 14:51:00,
2013-09-19 09:56:00,82.8,66.5,29.78,SW,218,7.0,12.0,58,0.00,,---,0.00,VWS V14.01,2013-09-19 14:56:00,
2013-09-19 10:01:00,82.9,66.6,29.79,SW,228,7.0,11.0,58,0.00,,---,0.00,VWS V14.01,2013-09-19 15:01:00,
2013-09-19 10:06:00,82.9,66.6,29.79,SE,137,6.0,11.0,58,0.00,,---,0.00,VWS V14.01,2013-09-19 15:06:00,
2013-09-19 10:11:00,82.9,66.6,29.79,SE,136,2.0,11.0,58,0.00,,---,0.00,VWS V14.01,2013-09-19 15:11:00,
2013-09-19 10:16:00,83.2,66.9,29.79,SW,232,7.0,7.0,58,0.00,,---,0.00,VWS V14.01,2013-09-19 15:16:00,
2013-09-19 10:21:00,83.6,67.3,29.79,SW,232,4.0,10.0,58,0.00,,---,0.00,VWS V14.01,2013-09-19 15:21:00,
2013-09-19 10:26:00,84.1,67.2,29.79,South,176,2.0,12.0,57,0.00,,---,0.00,VWS V14.01,2013-09-19 15:26:00,
2013-09-19 10:31:00,84.3,66.9,29.79,South,180,3.0,9.0,56,0.00,,---,0.00,VWS V14.01,2013-09-19 15:31:00,
2013-09-19 10:36:00,84.5,67.1,29.79,SW,219,7.0,13.0,56,0.00,,---,0.00,VWS V14.01,2013-09-19 15:36:00,
2013-09-19 10:41:00,84.8,66.8,29.79,SW,215,7.0,14.0,55,0.00,,---,0.00,VWS V14.01,2013-09-19 15:41:00,
2013-09-19 10:46:00,85.0,67.0,29.79,SE,133,4.0,12.0,55,0.00,,---,0.00,VWS V14.01,2013-09-19 15:46:00,
2013-09-19 10:51:00,85.1,67.1,29.79,South,188,8.0,12.0,55,0.00,,---,0.00,VWS V14.01,2013-09-19 15:51:00,
2013-09-19 10:56:00,85.3,67.3,29.80,WSW,250,6.0,12.0,55,0.00,,---,0.00,VWS V14.01,2013-09-19 15:56:00,
2013-09-19 11:01:00,85.4,66.9,29.79,WSW,255,7.0,8.0,54,0.00,,---,0.00,VWS V14.01,2013-09-19 16:01:00,
2013-09-19 11:06:00,85.3,66.8,29.79,SE,139,10.0,13.0,54,0.00,,---,0.00,VWS V14.01,2013-09-19 16:06:00,
2013-09-19 11:11:00,85.0,67.0,29.79,South,183,9.0,13.0,55,0.00,,---,0.00,VWS V14.01,2013-09-19 16:11:00,
2013-09-19 11:16:00,85.1,67.1,29.79,SW,232,5.0,10.0,55,0.00,,---,0.00,VWS V14.01,2013-09-19 16:16:00,
2013-09-19 11:21:00,85.5,67.0,29.79,WSW,248,14.0,15.0,54,0.00,,---,0.00,VWS V14.01,2013-09-19 16:21:00,
2013-09-19 11:26:00,86.0,67.4,29.80,SW,224,11.0,15.0,54,0.00,,---,0.00,VWS V14.01,2013-09-19 16:26:00,
2013-09-19 11:31:00,86.2,67.1,29.80,SW,235,6.0,7.0,53,0.00,,---,0.00,VWS V14.01,2013-09-19 16:31:00,
2013-09-19 11:36:00,86.4,67.3,29.79,South,169,5.0,13.0,53,0.00,,---,0.00,VWS V14.01,2013-09-19 16:36:00,
2013-09-19 11:41:00,86.3,67.2,29.79,SW,228,4.0,14.0,53,0.00,,---,0.00,VWS V14.01,2013-09-19 16:41:00,
2013-09-19 11:46:00,86.4,67.3,29.79,WSW,238,2.0,5.0,53,0.00,,---,0.00,VWS V14.01,2013-09-19 16:46:00,
2013-09-19 11:51:00,87.0,67.3,29.78,SSW,212,5.0,12.0,52,0.00,,---,0.00,VWS V14.01,2013-09-19 16:51:00,
2013-09-19 11:56:00,87.5,67.7,29.78,WSW,250,8.0,15.0,52,0.00,,---,0.00,VWS V14.01,2013-09-19 16:56:00,
2013-09-19 12:01:00,88.0,67.6,29.78,SW,222,4.0,7.0,51,0.00,,---,0.00,VWS V14.01,2013-09-19 17:01:00,
2013-09-19 12:06:00,88.5,68.1,29.78,WSW,237,5.0,15.0,51,0.00,,---,0.00,VWS V14.01,2013-09-19 17:06:00,
2013-09-19 12:11:00,88.8,67.8,29.78,SW,222,12.0,15.0,50,0.00,,---,0.00,VWS V14.01,2013-09-19 17:11:00,
2013-09-19 12:16:00,89.1,67.5,29.78,South,191,4.0,6.0,49,0.00,,---,0.00,VWS V14.01,2013-09-19 17:16:00,
2013-09-19 12:21:00,88.6,67.0,29.78,WSW,242,7.0,14.0,49,0.00,,---,0.00,VWS V14.01,2013-09-19 17:21:00,
2013-09-19 12:26:00,88.4,67.4,29.79,South,191,11.0,15.0,50,0.00,,---,0.00,VWS V14.01,2013-09-19 17:26:00,
2013-09-19 12:31:00,88.4,67.4,29.78,SSW,212,4.0,10.0,50,0.00,,---,0.00,VWS V14.01,2013-09-19 17:31:00,
2013-09-19 12:36:00,88.3,67.3,29.78,SSE,150,3.0,16.0,50,0.00,,---,0.00,VWS V14.01,2013-09-19 17:36:00,
2013-09-19 12:41:00,88.6,67.6,29.78,South,173,5.0,16.0,50,0.00,,---,0.00,VWS V14.01,2013-09-19 17:41:00,
2013-09-19 12:46:00,88.8,67.8,29.78,WSW,245,5.0,7.0,50,0.00,,---,0.00,VWS V14.01,2013-09-19 17:46:00,
2013-09-19 12:51:00,88.9,67.9,29.78,WSW,242,6.0,13.0,50,0.00,,---,0.00,VWS V14.01,2013-09-19 17:51:00,
2013-09-19 12:56:00,88.8,68.4,29.78,SW,216,12.0,14.0,51,0.00,,---,0.00,VWS V14.01,2013-09-19 17:56:00,
2013-09-19 13:01:00,88.7,68.3,29.78,SW,215,6.0,6.0,51,0.00,,---,0.00,VWS V14.01,2013-09-19 18:01:00,
2013-09-19 13:06:00,88.5,67.5,29.78,North,1,12.0,15.0,50,0.00,,---,0.00,VWS V14.01,2013-09-19 18:06:00,
2013-09-19 13:11:00,88.6,67.0,29.78,WNW,295,8.0,15.0,49,0.00,,---,0.00,VWS V14.01,2013-09-19 18:11:00,
2013-09-19 13:16:00,88.6,67.6,29.78,SW,226,9.0,12.0,50,0.00,,---,0.00,VWS V14.01,2013-09-19 18:16:00,
2013-09-19 13:21:00,88.6,67.6,29.78,WSW,248,8.0,12.0,50,0.00,,---,0.00,VWS V14.01,2013-09-19 18:21:00,
2013-09-19 13:26:00,88.6,67.6,29.77,North,357,9.0,12.0,50,0.00,,---,0.00,VWS V14.01,2013-09-19 18:26:00,
2013-09-19 13:31:00,88.4,68.0,29.77,West,274,7.0,9.0,51,0.00,,---,0.00,VWS V14.01,2013-09-19 18:31:00,
2013-09-19 13:36:00,88.0,67.1,29.77,WNW,303,8.0,13.0,50,0.00,,---,0.00,VWS V14.01,2013-09-19 18:36:00,
2013-09-19 13:41:00,87.8,67.4,29.77,West,270,7.0,13.0,51,0.00,,---,0.00,VWS V14.01,2013-09-19 18:41:00,
2013-09-19 13:46:00,87.5,67.2,29.78,WNW,283,5.0,7.0,51,0.00,,---,0.00,VWS V14.01,2013-09-19 18:46:00,
2013-09-19 13:51:00,87.4,67.6,29.78,West,266,6.0,12.0,52,0.00,,---,0.00,VWS V14.01,2013-09-19 18:51:00,
2013-09-19 13:56:00,87.3,67.5,29.78,West,260,8.0,12.0,52,0.00,,---,0.00,VWS V14.01,2013-09-19 18:56:00,
2013-09-19 14:01:00,86.7,67.5,29.78,West,260,8.0,12.0,53,0.00,,---,0.00,VWS V14.01,2013-09-19 19:01:00,
2013-09-19 14:06:00,86.2,67.1,29.78,West,266,1.0,12.0,53,0.00,,---,0.00,VWS V14.01,2013-09-19 19:06:00,
2013-09-19 14:11:00,86.7,67.5,29.78,SSW,210,6.0,12.0,53,0.00,,---,0.00,VWS V14.01,2013-09-19 19:11:00,
2013-09-19 14:16:00,86.5,67.3,29.78,NNW,333,3.0,8.0,53,0.00,,---,0.00,VWS V14.01,2013-09-19 19:16:00,
2013-09-19 14:21:00,86.1,67.0,29.77,SSW,208,5.0,13.0,53,0.00,,---,0.00,VWS V14.01,2013-09-19 19:21:00,
2013-09-19 14:26:00,85.9,67.3,29.77,WNW,295,12.0,13.0,54,0.00,,---,0.00,VWS V14.01,2013-09-19 19:26:00,
2013-09-19 14:31:00,86.0,67.4,29.77,West,266,8.0,8.0,54,0.00,,---,0.00,VWS V14.01,2013-09-19 19:31:00,
2013-09-19 14:36:00,86.4,67.3,29.77,WSW,252,6.0,10.0,53,0.00,,---,0.00,VWS V14.01,2013-09-19 19:36:00,
2013-09-19 14:41:00,86.0,66.9,29.77,WNW,287,4.0,12.0,53,0.00,,---,0.00,VWS V14.01,2013-09-19 19:41:00,
2013-09-19 14:46:00,85.7,67.2,29.78,SW,224,2.0,3.0,54,0.00,,---,0.00,VWS V14.01,2013-09-19 19:46:00,
2013-09-19 14:51:00,85.1,66.6,29.78,WSW,242,2.0,13.0,54,0.00,,---,0.00,VWS V14.01,2013-09-19 19:51:00,
2013-09-19 14:56:00,84.3,68.9,29.79,SW,218,5.0,13.0,60,0.00,,---,0.00,VWS V14.01,2013-09-19 19:56:00,
2013-09-19 15:01:00,82.6,69.7,29.78,WSW,238,1.0,3.0,65,0.01,,---,0.01,VWS V14.01,2013-09-19 20:01:00,
2013-09-19 15:06:00,81.6,70.4,29.79,SW,232,3.0,5.0,69,0.01,,---,0.01,VWS V14.01,2013-09-19 20:06:00,
2013-09-19 15:11:00,81.0,70.7,29.79,SSW,197,0.0,5.0,71,0.01,,---,0.01,VWS V14.01,2013-09-19 20:11:00,
2013-09-19 15:16:00,80.9,70.2,29.78,WNW,284,1.0,1.0,70,0.01,,---,0.01,VWS V14.01,2013-09-19 20:16:00,
2013-09-19 15:21:00,81.0,70.7,29.78,SW,228,0.0,5.0,71,0.01,,---,0.01,VWS V14.01,2013-09-19 20:21:00,
2013-09-19 15:26:00,81.3,70.2,29.78,West,265,0.0,5.0,69,0.01,,---,0.01,VWS V14.01,2013-09-19 20:26:00,
2013-09-19 15:31:00,81.9,70.3,29.79,SW,219,0.0,0.0,68,0.01,,---,0.01,VWS V14.01,2013-09-19 20:31:00,
2013-09-19 15:36:00,82.3,68.9,29.79,SW,224,0.0,1.0,64,0.01,,---,0.01,VWS V14.01,2013-09-19 20:36:00,
2013-09-19 15:41:00,82.8,69.4,29.78,WSW,238,3.0,4.0,64,0.01,,---,0.01,VWS V14.01,2013-09-19 20:41:00,
2013-09-19 15:46:00,83.3,68.5,29.77,West,262,3.0,4.0,61,0.01,,---,0.01,VWS V14.01,2013-09-19 20:46:00,
2013-09-19 15:51:00,83.8,68.9,29.77,WSW,249,4.0,6.0,61,0.01,,---,0.01,VWS V14.01,2013-09-19 20:51:00,
2013-09-19 15:56:00,84.0,69.1,29.77,WNW,292,4.0,7.0,61,0.01,,---,0.01,VWS V14.01,2013-09-19 20:56:00,
2013-09-19 16:01:00,83.7,69.3,29.77,NW,322,2.0,5.0,62,0.00,,---,0.01,VWS V14.01,2013-09-19 21:01:00,
2013-09-19 16:06:00,83.7,69.3,29.77,WNW,297,10.0,10.0,62,0.00,,---,0.01,VWS V14.01,2013-09-19 21:06:00,
2013-09-19 16:11:00,83.4,69.9,29.78,WNW,301,6.0,11.0,64,0.00,,---,0.01,VWS V14.01,2013-09-19 21:11:00,
2013-09-19 16:16:00,83.0,69.1,29.78,North,359,7.0,7.0,63,0.00,,---,0.01,VWS V14.01,2013-09-19 21:16:00,
2013-09-19 16:21:00,82.2,69.3,29.78,NW,316,6.0,14.0,65,0.00,,---,0.01,VWS V14.01,2013-09-19 21:21:00,
2013-09-19 16:26:00,80.6,68.6,29.78,NW,318,5.0,15.0,67,0.00,,---,0.01,VWS V14.01,2013-09-19 21:26:00,
2013-09-19 16:31:00,79.8,67.9,29.78,WNW,297,12.0,12.0,67,0.00,,---,0.01,VWS V14.01,2013-09-19 21:31:00,
2013-09-19 16:36:00,79.5,68.0,29.78,WNW,298,10.0,14.0,68,0.00,,---,0.01,VWS V14.01,2013-09-19 21:36:00,
2013-09-19 16:41:00,79.8,68.3,29.78,NW,310,8.0,14.0,68,0.00,,---,0.01,VWS V14.01,2013-09-19 21:41:00,
2013-09-19 16:46:00,79.8,67.4,29.78,WNW,294,5.0,10.0,66,0.00,,---,0.01,VWS V14.01,2013-09-19 21:46:00,
2013-09-19 16:51:00,79.7,67.3,29.79,NW,313,10.0,15.0,66,0.00,,---,0.01,VWS V14.01,2013-09-19 21:51:00,
2013-09-19 16:56:00,79.6,67.7,29.79,NW,319,4.0,15.0,67,0.00,,---,0.01,VWS V14.01,2013-09-19 21:56:00,
2013-09-19 17:01:00,79.2,67.3,29.80,North,355,4.0,8.0,67,0.00,,---,0.01,VWS V14.01,2013-09-19 22:01:00,
2013-09-19 17:06:00,79.0,66.7,29.80,WNW,297,6.0,16.0,66,0.00,,---,0.01,VWS V14.01,2013-09-19 22:06:00,
2013-09-19 17:11:00,78.7,66.8,29.80,NE,36,9.0,16.0,67,0.00,,---,0.01,VWS V14.01,2013-09-19 22:11:00,
2013-09-19 17:16:00,78.6,67.2,29.81,WNW,297,7.0,12.0,68,0.00,,---,0.01,VWS V14.01,2013-09-19 22:16:00,
2013-09-19 17:21:00,78.7,66.8,29.80,NW,307,6.0,13.0,67,0.00,,---,0.01,VWS V14.01,2013-09-19 22:21:00,
2013-09-19 17:26:00,78.2,65.9,29.80,NW,319,8.0,15.0,66,0.00,,---,0.01,VWS V14.01,2013-09-19 22:26:00,
2013-09-19 17:31:00,77.6,65.3,29.81,North,3,13.0,13.0,66,0.00,,---,0.01,VWS V14.01,2013-09-19 22:31:00,
2013-09-19 17:36:00,77.1,65.3,29.80,North,355,2.0,13.0,67,0.00,,---,0.01,VWS V14.01,2013-09-19 22:36:00,
2013-09-19 17:41:00,77.1,65.7,29.80,NNW,331,3.0,13.0,68,0.00,,---,0.01,VWS V14.01,2013-09-19 22:41:00,
2013-09-19 17:46:00,77.0,64.8,29.81,WSW,248,9.0,10.0,66,0.00,,---,0.01,VWS V14.01,2013-09-19 22:46:00,
2013-09-19 17:51:00,76.3,64.1,29.81,NW,319,11.0,16.0,66,0.00,,---,0.01,VWS V14.01,2013-09-19 22:51:00,
2013-09-19 17:56:00,75.9,64.2,29.82,NW,319,3.0,16.0,67,0.00,,---,0.01,VWS V14.01,2013-09-19 22:56:00,
2013-09-19 18:01:00,75.7,63.5,29.83,NNE,26,5.0,7.0,66,0.00,,---,0.01,VWS V14.01,2013-09-19 23:01:00,
2013-09-19 18:06:00,75.2,63.5,29.83,North,8,6.0,12.0,67,0.00,,---,0.01,VWS V14.01,2013-09-19 23:06:00,
2013-09-19 18:11:00,75.0,63.3,29.83,WNW,294,6.0,12.0,67,0.00,,---,0.01,VWS V14.01,2013-09-19 23:11:00,
2013-09-19 18:16:00,74.8,63.1,29.84,NW,309,6.0,8.0,67,0.00,,---,0.01,VWS V14.01,2013-09-19 23:16:00,
2013-09-19 18:21:00,74.5,62.8,29.84,NW,308,7.0,11.0,67,0.00,,---,0.01,VWS V14.01,2013-09-19 23:21:00,
2013-09-19 18:26:00,74.2,62.5,29.84,NNW,328,5.0,14.0,67,0.00,,---,0.01,VWS V14.01,2013-09-19 23:26:00,
2013-09-19 18:31:00,73.9,62.3,29.84,NW,310,5.0,6.0,67,0.00,,---,0.01,VWS V14.01,2013-09-19 23:31:00,
2013-09-19 18:36:00,73.7,62.1,29.84,NNW,342,6.0,14.0,67,0.00,,---,0.01,VWS V14.01,2013-09-19 23:36:00,
2013-09-19 18:40:00,73.5,61.9,29.84,NNW,342,4.0,14.0,67,0.00,,---,0.01,VWS V14.01,2013-09-19 23:40:00,
2013-09-19 18:46:00,73.2,61.6,29.85,NW,305,5.0,14.0,67,0.00,,---,0.01,VWS V14.01,2013-09-19 23:46:00,
2013-09-19 18:51:00,73.0,61.4,29.86,ENE,62,9.0,14.0,67,0.00,,---,0.01,VWS V14.01,2013-09-19 23:51:00,
2013-09-19 18:56:00,72.7,60.3,29.86,NW,315,6.0,15.0,65,0.00,,---,0.01,VWS V14.01,2013-09-19 23:56:00,
2013-09-19 19:01:00,72.6,60.6,29.86,NW,308,6.0,6.0,66,0.00,,---,0.01,VWS V14.01,2013-09-20 00:01:00,
2013-09-19 19:06:00,72.3,59.9,29.87,WNW,291,2.0,12.0,65,0.00,,---,0.01,VWS V14.01,2013-09-20 00:06:00,
2013-09-19 19:11:00,72.1,60.1,29.87,WNW,290,1.0,12.0,66,0.00,,---,0.01,VWS V14.01,2013-09-20 00:11:00,
2013-09-19 19:16:00,72.1,60.1,29.88,NNE,29,6.0,6.0,66,0.00,,---,0.01,VWS V14.01,2013-09-20 00:16:00,
2013-09-19 19:21:00,72.0,59.6,29.88,NNE,22,9.0,11.0,65,0.00,,---,0.01,VWS V14.01,2013-09-20 00:21:00,
2013-09-19 19:26:00,71.8,59.4,29.89,NE,43,4.0,11.0,65,0.00,,---,0.01,VWS V14.01,2013-09-20 00:26:00,
2013-09-19 19:30:00,71.7,59.8,29.89,NE,39,6.0,6.0,66,0.00,,---,0.01,VWS V14.01,2013-09-20 00:30:00,
2013-09-19 19:36:00,71.5,59.6,29.90,NW,316,1.0,7.0,66,0.00,,---,0.01,VWS V14.01,2013-09-20 00:36:00,
2013-09-19 19:41:00,71.4,59.5,29.90,NNE,28,4.0,7.0,66,0.00,,---,0.01,VWS V14.01,2013-09-20 00:41:00,
2013-09-19 19:45:00,71.2,59.3,29.90,WNW,301,3.0,6.0,66,0.00,,---,0.01,VWS V14.01,2013-09-20 00:45:00,
2013-09-19 19:50:00,71.0,59.5,29.90,ENE,58,6.0,9.0,67,0.00,,---,0.01,VWS V14.01,2013-09-20 00:50:00,
2013-09-19 19:55:00,70.9,59.4,29.90,NNW,342,1.0,9.0,67,0.00,,---,0.01,VWS V14.01,2013-09-20 00:55:00,
2013-09-19 20:00:00,70.7,59.2,29.91,ENE,57,2.0,2.0,67,0.00,,---,0.01,VWS V14.01,2013-09-20 01:00:00,
2013-09-19 20:05:00,70.7,59.2,29.92,East,79,2.0,6.0,67,0.00,,---,0.01,VWS V14.01,2013-09-20 01:05:00,
2013-09-19 20:10:00,70.6,59.1,29.91,ENE,59,4.0,6.0,67,0.00,,---,0.01,VWS V14.01,2013-09-20 01:10:00,
2013-09-19 20:15:00,70.5,59.0,29.92,NNW,340,0.0,0.0,67,0.00,,---,0.01,VWS V14.01,2013-09-20 01:15:00,
2013-09-19 20:21:00,70.4,59.3,29.93,NW,316,4.0,6.0,68,0.00,,---,0.01,VWS V14.01,2013-09-20 01:21:00,
2013-09-19 20:26:00,70.3,59.2,29.93,NE,53,1.0,6.0,68,0.00,,---,0.01,VWS V14.01,2013-09-20 01:26:00,
2013-09-19 20:31:00,70.2,59.2,29.94,ENE,61,0.0,1.0,68,0.00,,---,0.01,VWS V14.01,2013-09-20 01:31:00,
2013-09-19 20:36:00,70.1,59.1,29.94,ENE,61,1.0,6.0,68,0.00,,---,0.01,VWS V14.01,2013-09-20 01:36:00,
2013-09-19 20:41:00,70.0,59.0,29.95,ENE,59,1.0,6.0,68,0.00,,---,0.01,VWS V14.01,2013-09-20 01:41:00,
2013-09-19 20:46:00,70.0,59.4,29.96,East,79,1.0,1.0,69,0.00,,---,0.01,VWS V14.01,2013-09-20 01:46:00,
2013-09-19 20:51:00,69.9,59.3,29.96,ENE,77,1.0,3.0,69,0.00,,---,0.01,VWS V14.01,2013-09-20 01:51:00,
2013-09-19 20:56:00,69.8,59.2,29.97,East,83,1.0,3.0,69,0.00,,---,0.01,VWS V14.01,2013-09-20 01:56:00,
2013-09-19 21:00:00,69.7,59.1,29.97,NNE,13,2.0,2.0,69,0.00,,---,0.01,VWS V14.01,2013-09-20 02:00:00,
2013-09-19 21:05:00,69.7,59.1,29.98,NE,52,2.0,2.0,69,0.00,,---,0.01,VWS V14.01,2013-09-20 02:05:00,
2013-09-19 21:10:00,69.7,59.1,29.98,ENE,61,0.0,3.0,69,0.00,,---,0.01,VWS V14.01,2013-09-20 02:10:00,
2013-09-19 21:15:00,69.6,59.0,29.98,ENE,68,0.0,0.0,69,0.00,,---,0.01,VWS V14.01,2013-09-20 02:15:00,
2013-09-19 21:20:00,69.6,59.0,29.98,NNE,32,1.0,2.0,69,0.00,,---,0.01,VWS V14.01,2013-09-20 02:20:00,
2013-09-19 21:25:00,69.7,59.5,29.98,NNW,346,0.0,2.0,70,0.00,,---,0.01,VWS V14.01,2013-09-20 02:25:00,
2013-09-19 21:30:00,69.6,59.4,29.98,NNW,338,0.0,0.0,70,0.00,,---,0.01,VWS V14.01,2013-09-20 02:30:00,
2013-09-19 21:35:00,69.4,59.2,29.98,NE,49,0.0,2.0,70,0.00,,---,0.01,VWS V14.01,2013-09-20 02:35:00,
2013-09-19 21:40:00,69.3,59.5,29.98,NE,50,0.0,2.0,71,0.00,,---,0.01,VWS V14.01,2013-09-20 02:40:00,
2013-09-19 21:45:00,69.2,59.4,29.99,NW,311,0.0,0.0,71,0.00,,---,0.01,VWS V14.01,2013-09-20 02:45:00,
2013-09-19 21:50:00,69.1,59.7,29.99,NW,313,0.0,0.0,72,0.00,,---,0.01,VWS V14.01,2013-09-20 02:50:00,
2013-09-19 21:55:00,68.9,59.5,29.99,NW,319,0.0,0.0,72,0.00,,---,0.01,VWS V14.01,2013-09-20 02:55:00,
2013-09-19 22:00:00,68.8,59.8,29.99,NW,316,0.0,0.0,73,0.00,,---,0.01,VWS V14.01,2013-09-20 03:00:00,
2013-09-19 22:05:00,68.5,59.5,30.00,North,360,0.0,0.0,73,0.00,,---,0.01,VWS V14.01,2013-09-20 03:05:00,
2013-09-19 22:10:00,68.4,59.4,29.99,NW,308,0.0,0.0,73,0.00,,---,0.01,VWS V14.01,2013-09-20 03:10:00,
2013-09-19 22:15:00,68.3,59.7,30.00,NW,316,0.0,0.0,74,0.00,,---,0.01,VWS V14.01,2013-09-20 03:15:00,
2013-09-19 22:20:00,68.3,59.7,30.00,NW,308,0.0,0.0,74,0.00,,---,0.01,VWS V14.01,2013-09-20 03:20:00,
2013-09-19 22:25:00,68.3,59.3,30.00,NNE,27,0.0,2.0,73,0.00,,---,0.01,VWS V14.01,2013-09-20 03:25:00,
2013-09-19 22:30:00,68.2,59.2,30.00,NW,319,0.0,3.0,73,0.00,,---,0.01,VWS V14.01,2013-09-20 03:30:00,
2013-09-19 22:35:00,68.3,59.3,30.01,NW,319,0.0,0.0,73,0.00,,---,0.01,VWS V14.01,2013-09-20 03:35:00,
2013-09-19 22:40:00,68.3,58.9,30.01,WNW,301,0.0,0.0,72,0.00,,---,0.01,VWS V14.01,2013-09-20 03:40:00,
2013-09-19 22:45:00,68.3,58.9,30.01,WNW,295,0.0,0.0,72,0.00,,---,0.01,VWS V14.01,2013-09-20 03:45:00,
2013-09-19 22:50:00,68.2,59.2,30.01,NW,314,0.0,0.0,73,0.00,,---,0.01,VWS V14.01,2013-09-20 03:50:00,
2013-09-19 22:55:00,68.1,59.1,30.01,NNW,340,0.0,1.0,73,0.00,,---,0.01,VWS V14.01,2013-09-20 03:55:00,
2013-09-19 23:00:00,68.0,59.0,30.02,NNW,342,0.0,3.0,73,0.00,,---,0.01,VWS V14.01,2013-09-20 04:00:00,
2013-09-19 23:01:00,68.0,59.0,30.02,North,349,0.0,0.0,73,0.00,,---,0.01,VWS V14.01,2013-09-20 04:01:00,
2013-09-19 23:06:00,68.0,57.9,30.02,North,360,2.0,2.0,70,0.00,,---,0.01,VWS V14.01,2013-09-20 04:06:00,
2013-09-19 23:11:00,68.1,56.3,30.02,NNE,23,0.0,5.0,66,0.00,,---,0.01,VWS V14.01,2013-09-20 04:11:00,
2013-09-19 23:16:00,68.3,55.7,30.03,NE,53,2.0,5.0,64,0.00,,---,0.01,VWS V14.01,2013-09-20 04:16:00,
2013-09-19 23:21:00,68.4,55.8,30.03,NW,324,1.0,5.0,64,0.00,,---,0.01,VWS V14.01,2013-09-20 04:21:00,
2013-09-19 23:26:00,68.4,55.8,30.03,NNE,20,0.0,5.0,64,0.00,,---,0.01,VWS V14.01,2013-09-20 04:26:00,
2013-09-19 23:31:00,68.3,55.7,30.02,NW,315,0.0,0.0,64,0.00,,---,0.01,VWS V14.01,2013-09-20 04:31:00,
2013-09-19 23:36:00,68.1,55.5,30.03,NW,315,1.0,3.0,64,0.00,,---,0.01,VWS V14.01,2013-09-20 04:36:00,
2013-09-19 23:41:00,67.8,55.6,30.02,NW,313,2.0,5.0,65,0.00,,---,0.01,VWS V14.01,2013-09-20 04:41:00,
2013-09-19 23:46:00,67.5,55.3,30.02,North,7,2.0,4.0,65,0.00,,---,0.01,VWS V14.01,2013-09-20 04:46:00,
2013-09-19 23:51:00,67.3,55.6,30.03,NW,314,3.0,4.0,66,0.00,,---,0.01,VWS V14.01,2013-09-20 04:51:00,
2013-09-19 23:56:00,67.2,55.5,30.03,NW,322,0.0,4.0,66,0.00,,---,0.01,VWS V14.01,2013-09-20 04:56:00,